{"data":{"norad_id":54150,"epoch":"2026-09-20T21:25:49.999584Z","epoch_age_seconds":124868,"freshness":"FRESH","line1":"1 54150U 22139A   26263.89293981  .00000028  00000+0  13273-3 0  9998","line2":"2 54150  82.5026 288.8248 0021585  16.3370 343.8401 12.42893473177530","mean_motion":12.42893473,"eccentricity":0.0021585,"inclination_deg":82.5026,"raan_deg":288.8248,"arg_perigee_deg":16.337,"mean_anomaly_deg":343.8401,"bstar":0.00013273,"rev_number":17753,"period_min":115.85868228306,"perigee_km":1477.3684081021,"apogee_km":1511.3539828119,"semimajor_km":7872.498195457,"source":"CELESTRAK","updated_at":"2026-09-21T09:00:09.408984Z"}}